Change the Weather History Date:

Wednesday, January 12, 2000

  Actual Average Record
Temperature  
Mean Temperature 44 °F -  
Max Temperature 53 °F 40 °F 70 °F (2013)
Min Temperature 35 °F 18 °F -5 °F (1988)
Degree Days  
Heating Degree Days 21    
Moisture  
Dew Point 13 °F    
Average Humidity 30    
Maximum Humidity 43    
Minimum Humidity 20    
Precipitation  
Precipitation 0.00 in - - ()
Sea Level Pressure  
Sea Level Pressure 30.14 in    
Wind  
Wind Speed 8 mph (SE)    
Max Wind Speed 28 mph    
Max Gust Speed 39 mph    
Visibility 10 miles    
Events      
Averages and records for this station are not official NWS values.
T = Trace of Precipitation, MM = Missing Value Source: NWS Daily Summary

Daily Weather History Graph

Daily Weather History Graph

Search for Another Location

Airport or City:

Trip Planner

Search our weather history database for the weather conditions in past years. The results will help you decide how hot, cold, wet, or windy it might be!

Date:

Astronomy

Jan. 12, 2000 Rise Set
Actual Time 7:37 AM EST 5:30 PM EST
Civil Twilight 7:09 AM EST 5:58 PM EST
Nautical Twilight 6:37 AM EST 6:30 PM EST
Astronomical Twilight 6:06 AM EST 7:01 PM EST
Moon 11:15 AM EST (1/12) 11:16 PM EST (1/12)
Length of Visible Light 10h 49m
Length of Day
9h 53m
Waxing Crescent, 31% of the Moon is Illuminated
Jan 12
Waxing Crescent
Jan 14
First Quarter
Jan 20
Full
Jan 28
Last Quarter
Feb 5
New

Hourly Weather History & Observations

Time (EST) Temp. Windchill Dew Point Humidity Pressure Visibility Wind Dir Wind Speed Gust Speed Precip Events Conditions
12:16 AM 37.4 °F 25.4 °F 3.2 °F 24% 30.06 in 10.0 mi West 27.6 mph 35.7 mph N/A   Clear
12:36 AM 37.4 °F 27.2 °F 3.2 °F 24% 30.07 in 10.0 mi West 19.6 mph 39.1 mph N/A   Clear
12:56 AM 37.4 °F 28.5 °F 3.2 °F 24% 30.08 in 10.0 mi West 15.0 mph 24.2 mph N/A   Clear
1:16 AM 37.4 °F 34.9 °F 1.4 °F 22% 30.09 in 10.0 mi ENE 3.5 mph - N/A   Clear
1:36 AM 37.4 °F 30.3 °F 1.4 °F 22% 30.10 in 10.0 mi WSW 10.4 mph 17.3 mph N/A   Clear
1:56 AM 37.4 °F 33.8 °F 1.4 °F 22% 30.10 in 10.0 mi SW 4.6 mph 18.4 mph N/A   Clear
2:16 AM 37.4 °F - 1.4 °F 22% 30.11 in 10.0 mi Calm Calm - N/A   Clear
2:36 AM 35.6 °F 29.9 °F 3.2 °F 26% 30.11 in 10.0 mi SW 6.9 mph - N/A   Clear
2:56 AM 37.4 °F 28.5 °F 3.2 °F 24% 30.11 in 10.0 mi WSW 15.0 mph 19.6 mph N/A   Clear
3:16 AM 37.4 °F 29.8 °F 5.0 °F 26% 30.13 in 10.0 mi WSW 11.5 mph - N/A   Clear
3:36 AM 37.4 °F 30.3 °F -0.4 °F 20% 30.13 in 10.0 mi WSW 10.4 mph 18.4 mph N/A   Clear
3:56 AM 37.4 °F 31.4 °F -0.4 °F 20% 30.14 in 10.0 mi WSW 8.1 mph - N/A   Clear
4:16 AM 37.4 °F 34.9 °F 1.4 °F 22% 30.13 in 10.0 mi SW 3.5 mph - N/A   Clear
4:36 AM 35.6 °F - 3.2 °F 26% 30.14 in 10.0 mi Calm Calm - N/A   Clear
4:56 AM 37.4 °F - 1.4 °F 22% 30.14 in 10.0 mi Calm Calm - N/A   Clear
5:16 AM 37.4 °F - 1.4 °F 22% 30.15 in 10.0 mi Calm Calm - N/A   Clear
5:36 AM 37.4 °F - 3.2 °F 24% 30.15 in 10.0 mi Calm Calm - N/A   Clear
5:56 AM 35.6 °F - 3.2 °F 26% 30.16 in 10.0 mi Calm Calm - N/A   Clear
6:16 AM 35.6 °F - 3.2 °F 26% 30.16 in 10.0 mi Calm Calm - N/A   Clear
6:36 AM 35.6 °F - 5.0 °F 28% 30.17 in 10.0 mi Calm Calm - N/A   Clear
6:56 AM 35.6 °F - 3.2 °F 26% 30.18 in 10.0 mi Calm Calm - N/A   Clear
7:16 AM 35.6 °F - 3.2 °F 26% 30.19 in 10.0 mi Calm Calm - N/A   Clear
7:36 AM 35.6 °F - 3.2 °F 26% 30.19 in 10.0 mi Calm Calm - N/A   Clear
7:56 AM 37.4 °F - 5.0 °F 26% 30.18 in 10.0 mi Calm Calm - N/A   Clear
8:16 AM 35.6 °F - 5.0 °F 28% 30.19 in 10.0 mi Calm Calm - N/A   Clear
8:36 AM 35.6 °F - 12.2 °F 38% 30.19 in 10.0 mi Calm Calm - N/A   Clear
8:56 AM 35.6 °F - 8.6 °F 33% 30.20 in 10.0 mi Calm Calm - N/A   Clear
9:16 AM 39.2 °F - 12.2 °F 33% 30.20 in 10.0 mi Calm Calm - N/A   Clear
9:36 AM 39.2 °F - 15.8 °F 39% 30.20 in 10.0 mi Calm Calm - N/A   Clear
9:56 AM 41.0 °F - 17.6 °F 39% 30.20 in 10.0 mi Calm Calm - N/A   Clear
10:16 AM 42.8 °F - 19.4 °F 39% 30.20 in 10.0 mi Calm Calm - N/A   Clear
10:36 AM 44.6 °F 43.1 °F 21.2 °F 39% 30.20 in 10.0 mi East 3.5 mph - N/A   Clear
10:56 AM 46.4 °F - 21.2 °F 37% 30.20 in 10.0 mi Calm Calm - N/A   Clear
11:16 AM 48.2 °F - 17.6 °F 30% 30.19 in 10.0 mi East 3.5 mph - N/A   Clear
11:36 AM 51.8 °F - 19.4 °F 28% 30.18 in 10.0 mi East 3.5 mph - N/A   Clear
11:56 AM 53.6 °F - 21.2 °F 28% 30.16 in 10.0 mi ESE 5.8 mph - N/A   Clear
12:16 PM 53.6 °F - 21.2 °F 28% 30.16 in 10.0 mi East 8.1 mph - N/A   Clear
12:36 PM 51.8 °F - 19.4 °F 28% 30.15 in 10.0 mi ESE 8.1 mph - N/A   Clear
12:56 PM 51.8 °F - 19.4 °F 28% 30.14 in 10.0 mi East 11.5 mph - N/A   Clear
1:16 PM 51.8 °F - 19.4 °F 28% 30.13 in 10.0 mi ESE 8.1 mph 17.3 mph N/A   Clear
1:36 PM 53.6 °F - 21.2 °F 28% 30.12 in 10.0 mi ESE 8.1 mph - N/A   Clear
1:56 PM 53.6 °F - 21.2 °F 28% 30.11 in 10.0 mi SE 8.1 mph - N/A   Clear
2:16 PM 53.6 °F - 23.0 °F 30% 30.11 in 10.0 mi ESE 8.1 mph - N/A   Clear
2:36 PM 53.6 °F - 23.0 °F 30% 30.10 in 10.0 mi ESE 6.9 mph - N/A   Clear
2:56 PM 51.8 °F - 21.2 °F 30% 30.11 in 10.0 mi ESE 8.1 mph - N/A   Clear
3:16 PM 51.8 °F - 21.2 °F 30% 30.10 in 10.0 mi ESE 8.1 mph - N/A   Clear
3:36 PM 51.8 °F - 23.0 °F 33% 30.11 in 10.0 mi ESE 6.9 mph - N/A   Clear
3:56 PM 51.8 °F - 23.0 °F 33% 30.10 in 10.0 mi ESE 5.8 mph - N/A   Clear
4:16 PM 51.8 °F - 23.0 °F 33% 30.11 in 10.0 mi ESE 6.9 mph 16.1 mph N/A   Clear
4:36 PM 50.0 °F - 23.0 °F 35% 30.11 in 10.0 mi SE 5.8 mph - N/A   Clear
4:56 PM 50.0 °F - 23.0 °F 35% 30.11 in 10.0 mi SE 4.6 mph - N/A   Clear
5:16 PM 48.2 °F - 23.0 °F 37% 30.12 in 10.0 mi SSE 5.8 mph - N/A   Clear
5:36 PM 46.4 °F 43.5 °F 23.0 °F 40% 30.11 in 10.0 mi ESE 5.8 mph - N/A   Clear
5:56 PM 46.4 °F - 23.0 °F 40% 30.11 in 10.0 mi Calm Calm - N/A   Clear
6:16 PM 46.4 °F 45.2 °F 23.0 °F 40% 30.12 in 10.0 mi SE 3.5 mph - N/A   Clear
6:36 PM 46.4 °F - 23.0 °F 40% 30.11 in 10.0 mi Calm Calm - N/A   Clear
6:56 PM 46.4 °F - 24.8 °F 43% 30.12 in 10.0 mi Calm Calm - N/A   Clear
7:16 PM 44.6 °F - 23.0 °F 43% 30.11 in 10.0 mi Calm Calm - N/A   Clear
7:36 PM 46.4 °F - 24.8 °F 43% 30.11 in 10.0 mi Calm Calm - N/A   Clear
7:56 PM 46.4 °F - 26.6 °F 46% 30.10 in 10.0 mi Calm Calm - N/A   Clear
8:16 PM 44.6 °F - 26.6 °F 49% 30.10 in 10.0 mi Calm Calm - N/A   Clear
8:36 PM 44.6 °F - 26.6 °F 49% 30.10 in 10.0 mi Calm Calm - N/A   Clear
8:56 PM 46.4 °F - 28.4 °F 50% 30.09 in 10.0 mi Calm Calm - N/A   Clear
9:16 PM 46.4 °F - 30.2 °F 53% 30.09 in 10.0 mi Calm Calm - N/A   Clear
9:36 PM 46.4 °F - 32.0 °F 57% 30.08 in 10.0 mi Calm Calm - N/A   Clear
9:56 PM 46.4 °F - 32.0 °F 57% 30.07 in 10.0 mi Calm Calm - N/A   Clear
10:16 PM 46.4 °F - 32.0 °F 57% 30.07 in 10.0 mi Calm Calm - N/A   Clear
10:36 PM 46.4 °F - 33.8 °F 62% 30.06 in 10.0 mi Calm Calm - N/A   Clear
10:56 PM 44.6 °F 43.1 °F 32.0 °F 61% 30.04 in 10.0 mi SSE 3.5 mph - N/A   Clear
11:16 PM 46.4 °F 42.4 °F 35.6 °F 66% 30.03 in 10.0 mi SSE 8.1 mph - N/A   Clear
11:36 PM 46.4 °F 42.4 °F 35.6 °F 66% 30.02 in 10.0 mi SSE 8.1 mph - N/A   Clear
11:56 PM 48.2 °F - 35.6 °F 62% 30.01 in 10.0 mi SSE 6.9 mph 16.1 mph N/A   Clear